This is the latest recevied weather packets stored in our database for station/object K7KRJ-10. If no packets are shown the sender has not sent any weather packets the latest 10 day(s).
| Time | Temp. | Humidity | Pressure | Rain* | Wind** | Luminosity | Snow |
|---|---|---|---|---|---|---|---|
| 1777513416 | 28.33° C | 12% | 1008.5 hPa | 0 mm | - | 19 W/m² | - |
| 1777512510 | 28.33° C | 12% | 1008.8 hPa | 0 mm | - | 37 W/m² | - |
| 1777511608 | 28.89° C | 12% | 1009 hPa | 0 mm | - | 52 W/m² | - |
| 1777510704 | 28.89° C | 12% | 1009 hPa | 0 mm | - | 92 W/m² | - |
| 1777509799 | 28.89° C | 11% | 1008.9 hPa | 0 mm | - | 95 W/m² | - |
| 1777508895 | 29.44° C | 11% | 1008.7 hPa | 0 mm | - | 170 W/m² | - |
| 1777507992 | 28.89° C | 11% | 1009 hPa | 0 mm | - | 155 W/m² | - |
| 1777507089 | 29.44° C | 11% | 1009 hPa | 0 mm | - | 165 W/m² | - |
| 1777506184 | 30° C | 11% | 1008.8 hPa | 0 mm | - | 281 W/m² | - |
| 1777505279 | 29.44° C | 11% | 1008.9 hPa | 0 mm | - | 271 W/m² | - |
| 1777504376 | 30° C | 11% | 1009.1 hPa | 0 mm | - | 290 W/m² | - |
| 1777503475 | 30° C | 10% | 1009.2 hPa | 0 mm | - | 362 W/m² | - |
| 1777502572 | 30.56° C | 10% | 1009.4 hPa | 0 mm | - | 460 W/m² | - |
| 1777501668 | 30.56° C | 9% | 1009.6 hPa | 0 mm | - | 682 W/m² | - |
| 1777500767 | 30.56° C | 10% | 1010 hPa | 0 mm | - | 715 W/m² | - |
| 1777499863 | 30.56° C | 11% | 1010.2 hPa | 0 mm | - | 830 W/m² | - |
| 1777498959 | 30.56° C | 10% | 1010.5 hPa | 0 mm | - | 850 W/m² | - |
| 1777498056 | 31.11° C | 10% | 1010.4 hPa | 0 mm | - | 907 W/m² | - |
| 1777497151 | 30° C | 12% | 1010.4 hPa | 0 mm | - | 932 W/m² | - |
| 1777496247 | 30° C | 12% | 1010.8 hPa | 0 mm | - | 963 W/m² | - |
| 1777495347 | 30° C | 11% | 1010.9 hPa | 0 mm | - | 996 W/m² | - |
| 1777494445 | 30° C | 12% | 1011 hPa | 0 mm | - | 1014 W/m² | - |
| 1777493542 | 30° C | 12% | 1011 hPa | 0 mm | - | 1036 W/m² | - |
| 1777492638 | 29.44° C | 12% | 1011.4 hPa | 0 mm | - | 1042 W/m² | - |
| 1777491738 | 30° C | 12% | 1011.6 hPa | 0 mm | - | 1054 W/m² | - |
* Rain latest hour (hover to see other rain measurements)
** Current wind speed in m/s (hover to see current wind gust speed)